Orbital Elements at Epoch 2459200.5 (2020-Dec-17.0) TDB
Reference: JPL 37 (heliocentric ecliptic J2000)
Element | Value | Uncertainty (1-sigma) | Units |
e | .2465460369721189 | 2.9311e-08 | |
a | 2.428187789869883 | 6.1315e-09 | au |
q | 1.829527713253375 | 7.2483e-08 | au |
i | 2.822118452809132 | 2.8361e-06 | deg |
node | 52.5591407154397 | 8.3605e-05 | deg |
peri | 338.3431256003499 | 8.3954e-05 | deg |
M | 89.97727702510001 | 8.595e-06 | deg |
tp | 2458855.076262847518 (2020-Jan-06.57626285) | 3.2459e-05 | TDB |
period | 1382.043883593012 3.78 | 5.2348e-06 1.433e-08 | d yr |
n | .2604837692013648 | 9.8664e-10 | deg/d |
Q | 3.026847866486391 | 7.6432e-09 | au |
|
| | Orbit Determination Parameters
Additional Information
|